Weather History for Myrtle Beach, SC

Change the Weather History Date:

Saturday, March 2, 2013

  Actual Average Record
Temperature  
Mean Temperature 42 °F -  
Max Temperature 51 °F 59 °F 78 °F (1997)
Min Temperature 33 °F 40 °F 24 °F (1950)
Degree Days  
Heating Degree Days 23    
Moisture  
Dew Point 33 °F    
Average Humidity 79    
Maximum Humidity 100    
Minimum Humidity 43    
Precipitation  
Precipitation 0.00 in - - ()
Sea Level Pressure  
Sea Level Pressure 29.89 in    
Wind  
Wind Speed 2 mph (WNW)    
Max Wind Speed 12 mph    
Max Gust Speed -    
Visibility 10 miles    
Events      
Averages and records for this station are not official NWS values.
T = Trace of Precipitation, MM = Missing Value Source: NWS Daily Summary

Daily Weather History Graph

Daily Weather History Graph

Search for Another Location

Airport:

Trip Planner

Search our weather history database for the weather conditions in past years. The results will help you decide how hot, cold, wet, or windy it might be!

Date:

Astronomy

Mar. 02, 2013 Rise Set
Actual Time 6:42 AM EST 6:13 PM EST
Civil Twilight 6:17 AM EST 6:38 PM EST
Nautical Twilight 5:48 AM EST 7:07 PM EST
Astronomical Twilight 5:19 AM EST 7:36 PM EST
Moon 11:32 PM EST (3/2) 9:26 AM EST (3/2)
Length of Visible Light 12h 20m
Length of Day
11h 30m
Waning Gibbous, 74% of the Moon is Illuminated
Mar 2
Waning Gibbous
Mar 4
Last Quarter
Mar 11
New
Mar 19
First Quarter
Mar 27
Full

Hourly Weather History & Observations

Time (EST) Temp. Windchill Dew Point Humidity Pressure Visibility Wind Dir Wind Speed Gust Speed Precip Events Conditions
12:15 AM 37.4 °F - 33.8 °F 87% 29.92 in 10.0 mi Calm Calm - N/A   Mostly Cloudy
12:35 AM 37.4 °F - 35.6 °F 93% 29.91 in 10.0 mi Calm Calm - N/A   Overcast
12:55 AM 39.2 °F - 35.6 °F 87% 29.92 in 10.0 mi Calm Calm - N/A   Overcast
1:15 AM 39.2 °F - 35.6 °F 87% 29.92 in 10.0 mi Calm Calm - N/A   Overcast
1:35 AM 39.2 °F - 35.6 °F 87% 29.91 in 10.0 mi Calm Calm - N/A   Overcast
1:55 AM 37.4 °F - 33.8 °F 87% 29.91 in 10.0 mi Calm Calm - N/A   Mostly Cloudy
2:15 AM 37.4 °F - 33.8 °F 87% 29.91 in 10.0 mi Calm Calm - N/A   Partly Cloudy
2:35 AM 37.4 °F - 35.6 °F 93% 29.91 in 10.0 mi Calm Calm - N/A   Clear
2:55 AM 35.6 °F - 32.0 °F 87% 29.90 in 10.0 mi Calm Calm - N/A   Clear
3:15 AM 35.6 °F - 33.8 °F 93% 29.89 in 10.0 mi Calm Calm - N/A   Clear
3:35 AM 33.8 °F - 32.0 °F 93% 29.89 in 10.0 mi Calm Calm - N/A   Clear
3:55 AM 35.6 °F - 33.8 °F 93% 29.89 in 10.0 mi Calm Calm - N/A   Clear
4:15 AM 33.8 °F - 32.0 °F 93% 29.89 in 10.0 mi Calm Calm - N/A   Clear
4:35 AM 33.8 °F - 33.8 °F 100% 29.89 in 10.0 mi Calm Calm - N/A   Clear
4:55 AM 33.8 °F - 30.2 °F 87% 29.89 in 10.0 mi Calm Calm - N/A   Mostly Cloudy
5:15 AM 35.6 °F - 35.6 °F 100% 29.89 in 10.0 mi Calm Calm - N/A   Overcast
5:35 AM 35.6 °F 31.7 °F 35.6 °F 100% 29.89 in 10.0 mi North 4.6 mph - N/A   Overcast
5:50 AM 37.4 °F 32.8 °F 37.4 °F 100% 29.89 in 10.0 mi NNE 5.8 mph - N/A   Overcast
6:45 AM 35.6 °F 30.7 °F 33.8 °F 93% 29.90 in 10.0 mi WNW 5.8 mph - N/A   Mostly Cloudy
7:45 AM 39.2 °F 35.0 °F 35.6 °F 87% 29.90 in 10.0 mi WNW 5.8 mph - N/A   Scattered Clouds
8:45 AM 42.8 °F 38.6 °F 30.2 °F 61% 29.90 in 10.0 mi NNW 6.9 mph - N/A   Mostly Cloudy
9:45 AM 46.4 °F 42.9 °F 33.8 °F 62% 29.89 in 10.0 mi WNW 6.9 mph - N/A   Scattered Clouds
10:45 AM 48.2 °F - 30.2 °F 50% 29.88 in 10.0 mi WSW 9.2 mph - N/A   Mostly Cloudy
11:45 AM 51.8 °F - 30.2 °F 44% 29.87 in 10.0 mi WSW 10.4 mph - N/A   Mostly Cloudy
12:45 PM 50.0 °F - 28.4 °F 43% 29.85 in 10.0 mi West 10.4 mph - N/A   Mostly Cloudy
1:05 PM 48.2 °F - 28.4 °F 46% 29.84 in 10.0 mi NW 9.2 mph - N/A   Mostly Cloudy
1:45 PM 48.2 °F - 28.4 °F 46% 29.84 in 10.0 mi WNW 11.5 mph - N/A   Overcast
2:48 PM 48.2 °F - 28.4 °F 46% 29.83 in 10.0 mi WNW 9.2 mph - N/A   Overcast
3:48 PM 46.4 °F 41.9 °F 30.2 °F 53% 29.84 in 10.0 mi NW 9.2 mph - N/A   Overcast
5:45 PM 44.6 °F 40.7 °F 30.2 °F 57% 29.86 in 10.0 mi West 6.9 mph - N/A   Mostly Cloudy
6:45 PM 42.8 °F 38.6 °F 32.0 °F 66% 29.87 in 10.0 mi NNW 6.9 mph - N/A   Scattered Clouds
8:45 PM 35.6 °F 31.7 °F 32.0 °F 87% 29.90 in 10.0 mi WNW 4.6 mph - N/A   Clear
9:45 PM 35.6 °F 31.7 °F 33.8 °F 93% 29.91 in 10.0 mi West 4.6 mph - N/A   Clear
10:55 PM 33.8 °F 28.6 °F 30.2 °F 87% 29.91 in 10.0 mi West 5.8 mph - N/A   Clear
11:15 PM 35.6 °F 29.9 °F 30.2 °F 81% 29.90 in 10.0 mi West 6.9 mph - N/A   Clear
11:35 PM 35.6 °F 29.9 °F 32.0 °F 87% 29.89 in 10.0 mi West 6.9 mph - N/A   Clear
11:55 PM 35.6 °F 31.7 °F 30.2 °F 81% 29.89 in 10.0 mi West 4.6 mph - N/A   Partly Cloudy